Regional Weather Roundup
Issued by NWS Wakefield, VA

Home | Current Version | Previous Version | Text Only | Print | Product List | Glossary On
Versions: 1 2 3 4 5 6 7 8 9 10 11 12 13 14 15 16 17 18 19 20 21 22 23 24 25 26 27 28 29 30 31 32 33 34 35 36 37 38 39 40 41 42 43 44 45 46 47 48 49 50
478
ASUS41 KAKQ 270415
RWRAKQ

REGIONAL WEATHER ROUNDUP
NATIONAL WEATHER SERVICE WAKEFIELD VA
1200 AM EDT FRI MAY 27 2016

Note: "fair" indicates few or no clouds below 12,000 feet with no
significant weather and/or obstructions to visibility. * = Denotes
station may not report precipitation (e.g., rain,snow,etc.),
thunder or fog.

VAZ042-051-052>054-056-270500-
NORTHERN VIRGINIA

CITY           SKY/WX    TMP DP  RH WIND       PRES   REMARKS
WASH NATIONAL  FAIR      73  64  73 S9        30.04S
DULLES         FAIR      73  63  70 S5        30.04S
FORT BELVOIR   FAIR      68  66  93 CALM      30.03F
QUANTICO       FAIR      73  66  78 SW7       30.04F
FREDERICKSBRG* NOT AVBL
STAFFORD*      FAIR      68  63  86 CALM      30.08F
WARRENTON      FAIR      70  61  74 CALM      30.03F
CULPEPER*      FAIR      68  67  96 CALM      30.05S
MANASSAS*      FAIR      70  66  88 CALM      30.04S
LEESBURG*      FAIR      75  68  78 S13       30.05S
WINCHESTER     MOCLDY    70  68  94 CALM      30.05S
FRONT ROYAL*   CLOUDY    68  64  88 CALM      30.05S
LURAY*         FAIR      70  63  78 SW3       30.06F
$$

VAZ048-049-060>072-079>083-270500-
CENTRAL AND SOUTH CENTRAL VIRGINIA

CITY           SKY/WX    TMP DP  RH WIND       PRES   REMARKS
RICHMOND       FAIR      73  64  73 S7        30.07S
CHESTERFIELD*  FAIR      73  55  53 CALM      30.08S
PETERSBURG*    FAIR      73  65  78 S5        30.08S
HANOVER        FAIR      70  62  76 CALM      30.07F
TAPPAHANNOCK*  FAIR      74  63  69 S5        30.07S
QUINTON*       FAIR      74  64  71 S8        30.08R
CHARLOTTSVILLE FAIR      73  64  73 W3        30.06F
GORDONSVILLE*  MOCLDY    69  67  92 CALM      30.05S
ORANGE*        FAIR      70  68  94 CALM      30.06F
LOUISA*        MOCLDY    75  68  78 CALM      30.05F
BUMPASS*       CLOUDY    71  65  84 CALM      30.06F
FARMVILLE*     FAIR      69  69 100 CALM      30.06S
CREWE*         FAIR      68  68 100 CALM      30.08S
FORT PICKETT*  NOT AVBL
CHASE CITY*    FAIR      69  67  94 CALM      30.09S
CLARKSVILLE*   FAIR      70  66  88 S3        30.08F
SOUTH HILL*    FAIR      70  65  84 S6        30.14S
LAWRENCEVILLE* FAIR      72  66  80 S7        30.09S
EMPORIA*       FAIR      72  64  78 SE8       30.11S
$$

VAZ088>098-270500-
SOUTHEAST VIRGINIA

CITY           SKY/WX    TMP DP  RH WIND       PRES   REMARKS
NORFOLK        FAIR      74  62  66 S12       30.11S
VIRGINIA BEACH FAIR      77  63  61 S13       30.11S
NORFOLK NAVAL  FAIR      75  62  64 S13G20    30.12S
WEST POINT*    FAIR      75  64  68 S7        30.09F
SALUDA*        FAIR      75  66  75 S7        30.07F
NEWPORT NEWS   FAIR      75  64  68 S12       30.10S
LANGLEY AFB    FAIR      74  64  69 S13       30.10S
FORT EUSTIS    FAIR      75  65  70 S8        30.08F
WILLIAMSBURG*  FAIR      75  66  73 S6        30.10S
HR EXEC AP*    FAIR      73  63  68 S9        30.13F
FRANKLIN*      FAIR      73  63  71 S9        30.11F
US460-WAKEFLD  FAIR      74  64  71 S8        30.09F
$$

VAZ020-022-025-037-045-270500-
WEST CENTRAL AND SOUTHWEST VIRGINIA

CITY           SKY/WX    TMP DP  RH WIND       PRES   REMARKS
STAUNTON*      FAIR      66  62  86 CALM      30.11S
WAYNESBORO*    FAIR      65  61  86 CALM      30.10S
HOT SPRINGS VA FAIR      63  58  84 SW8       30.21R
LYNCHBURG      MOCLDY    67  64  90 CALM      30.10F
DANVILLE       FAIR      66  64  93 CALM      30.09S
SOUTH BOSTON*  FAIR      72  67  85 CALM      30.08S
MARTINSVILLE   FAIR      60  60  99 CALM      30.13S FOG
ROANOKE        FAIR      70  66  87 CALM      30.12R
BLACKSBURG     FAIR      63  62  95 CALM      30.18R
DUBLIN*        FAIR      65  64  94 CALM      30.17R
MARION*        FAIR      61  60  94 CALM      30.21R FOG
HILLSVILLE*    FAIR      66  61  85 S5        30.17R
RICHLANDS*     FAIR      65  54  69 CALM      30.17S
WISE*          FAIR      63  59  88 SW6       30.18R
ABINGDON*      FAIR      63  62  97 CALM      30.16S FOG
$$

MDZ021>025-VAZ099-100-270500-
SOUTHERN MARYLAND AND THE DELMARVA PENINSULA

CITY           SKY/WX    TMP DP  RH WIND       PRES   REMARKS
PATUXENT RIVER CLEAR     75  63  66 S8        30.05F
BAY BRIDGE APT PTCLDY    75  66  73 S9        30.05F
LEONARDTOWN    CLEAR     73  61  64 SE3       30.08S
DOVER          PTCLDY    74  66  78 S9        30.05S
GEORGETOWN     CLEAR     72  62  71 S12       30.09S
EASTON         PTCLDY    76  69  79 S9        30.10F
CAMBRIDGE      PTCLDY    72  64  78 S6        30.07S
SALISBURY      CLEAR     71  64  78 S8        30.08S
OCEAN CITY     CLEAR     70  64  81 SW9       30.10S
WALLOPS ISLAND FAIR      69  63  81 S14       30.11S
ACCOMACK*      FAIR      72  63  73 S8        30.10S
$$

NCZ012>017-030>032-270500-
NORTH CENTRAL AND EASTERN NORTH CAROLINA

CITY           SKY/WX    TMP DP  RH WIND       PRES   REMARKS
ROANOKE RAPIDS FAIR      72  63  73 S8        30.11S
RALEIGH        PTCLDY    75  65  70 S12       30.11S
ELIZABETH CITY CLEAR     71  66  84 S12       30.14F
AHOSKIE*       CLEAR     72  61  70 S7        30.12F
EDENTON*       CLEAR    N/A N/A N/A S7        30.15F
CURRITUCK*     CLEAR     73  66  78 S6        30.15S
KILL DEVIL HLS CLEAR     71  64  78 S6        30.15F
MANTEO         NOT AVBL
CAPE HATTERAS  CLEAR     72  65  78 S6        30.17F
TARBORO*       FAIR      73  62  66 S7        30.14S
GOLDSBORO      CLEAR     72  67  86 S7        30.12F
WASHINGTON     CLEAR     70  64  80 S5        30.15F
GREENVILLE     CLEAR     72  64  78 S13       30.15F
NEW BERN       CLEAR     68  64  87 S5        30.17F
WILMINGTON     CLEAR     67  64  90 CALM      30.16F
$$

VAZ048-270500-
ELSEWHERE

CITY           SKY/WX    TMP DP  RH WIND       PRES   REMARKS
HARRISBURG PA  CLOUDY    74  65  73 SE3       30.02S
BALTIMORE      PTCLDY    73  64  73 S3        30.03F
ANNAPOLIS      PTCLDY    71  65  81 S10       30.04F
ANDREWS AFB    FAIR      74  63  67 S9        30.03F
PHILADELPHIA   PTCLDY    74  59  59 CALM      30.06S
HENDERSON NC   CLEAR     69  62  76 S6        30.09F
GREENSBORO     CLEAR     73  62  68 S6        30.10S
ROCKY MOUNT    CLEAR     73  63  70 S9        30.12F
$$

VAZ100-270500-
MARINE

STATION/POSITION TIME  TEMP    WIND        PRES    WAVE   SWELL
                       AIR SEA DIR/SP/G            HT/PER HT/PER
                 (UTC) (F)     (DEG/KT/KT) (MB)    (FT/S) (FT/S)
BRANDYWINE LGT   0300                      1018.4R
CAPE MAY NJ      0306      68              1018.4R
LEWES DE         0306      61              1018.4S
15NM E FENWICK I 0350   64 59              1019.1R   3/ 4
OCEAN-CITY-INLET 0306      62              1019.6S
WACHAPREAGUE VA  0306      75              1019.0R
THOMAS POINT MD  0400   71 66  170/ 19/ 20 1018.3F
GOOSES REEF MD   0400   69 65  160/ 12/ 14 1018.6F   1/ 3
COVE POINT MD    0300                      1018.6R
SOLOMONS ISLAND  0306      65                N/A
BISHOPS HEAD MD  0306      75              1018.4R
PINEY POINT MD   0324          170/  7/  7   N/A
POTOMAC MD       0400   73 70  210/ 12/ 12 1017.2F   1/ 2
CAMBRIDGE MD     0300      65              1017.4R
LEWISETTA VA     0306      73              1017.7R
RAPPAHANNOCK LGT 0300                      1019.5S
STINGRAY PT      0400   74 67  200/ 12/ 14 1018.8F   2/ 3
YORK RVR RNG VA  0300                      1018.3R
YORKTOWN VA      0306      66              1018.8R
JAMESTOWN VA     0400   75 72  180/ 12/ 14   N/A     1
DOMINION TERM VA 0300                      1019.3R
KIPTOPEKE VA     0306      70                N/A
CHES BAY BRIDGE  0306      66              1019.3S
CAPE HENRY VA    0324   75     190/ 11/ 16   N/A
CHESAPEAKE LGHT  0300   71     190/ 22/ 23 1020.2R
WILLOUBY STN VA  0300                      1020.3R
CAPE HENRY BUOY  0312      67                N/A     2/ 4
1ST LANDING BUOY 0400   73 67  200/ 16/ 19 1019.1F   1/ 2
CAPE CHARLES BUO 0326      68                N/A     2/ 4   2/ 8
OFFSHORE WE BUOY 0321      62                N/A     3/ 4   2/ 8
64NM E OF VA BCH 0350   64 58  200/ 10/ 10 1020.9S   3/ 8   2/ 8
DUCK PIER NC     0306      61              1020.5R
44100 DUCK FRF   0324      67                N/A     2/ 8
44056 DUCK FRF   0311      63                N/A     2/ 7
OREGON INLET NC  0306      77              1021.5R
HATTERAS NC      0306      74              1021.5R
DIAMOND SHLS NC  0350   77 71  170/ 12/ 14 1021.6S   2/ 7   2/ 7
CAPEC1F1C2F2C3F3C4F4C5F5C6F6C7F7C8M1C9!



USA.gov is the U.S. government's official web portal to all federal, state and local government web resources and services.